Location: G�ppingen
(0.0000°N, 0.0000°E)
Time: 10:28:17
(UTC+00:00)

Tiangong 2 - Visible Passes

Search period start: 19 May 2019 00:00
Search period end: 29 May 2019 00:00
Orbit: 378 x 387 km, 42.8° (Epoch: 19 May)

Date Brightness Start Highest point End Pass type
(mag) Time Alt. Az. Time Alt. Az. Time Alt. Az.
19 May 1.0 05:29:49 10° NW 05:32:58 87° SW 05:36:08 10° SE visible
20 May 3.1 04:30:14 10° NNW 04:33:01 29° NE 04:35:49 10° ESE visible
21 May 2.0 05:07:42 16° W 05:09:35 28° SW 05:12:23 10° SSE visible
22 May 4.1 04:12:42 11° SE 04:12:42 11° SE 04:12:46 10° SE visible
